| time (UTC) | temp F | wind direction | speed knots | gust knots | rain 1hr in | rain 24hr in | rain mn in | humidity % | barometer mb |
| 20260507180856 | 80 | 239 | 8.7 | 16.5 | 0.00 | 0.00 | 0.00 | 44 | 1005.6 |
| 20260507180356 | 80 | 236 | 7.0 | 16.5 | 0.00 | 0.00 | 0.00 | 43 | 1005.8 |
| 20260507175856 | 80 | 237 | 8.7 | 16.5 | 0.00 | 0.00 | 0.00 | 43 | 1005.7 |
| 20260507175355 | 79 | 241 | 7.8 | 10.4 | 0.00 | 0.00 | 0.00 | 44 | 1005.8 |
| 20260507174855 | 80 | 225 | 7.0 | 10.4 | 0.00 | 0.00 | 0.00 | 44 | 1005.5 |
| 20260507174355 | 79 | 248 | 5.2 | 12.2 | 0.00 | 0.00 | 0.00 | 45 | 1005.6 |
| 20260507173857 | 79 | 338 | 4.3 | 12.2 | 0.00 | 0.00 | 0.00 | 45 | 1005.7 |
| 20260507173357 | 78 | 282 | 5.2 | 9.6 | 1.84 | 0.00 | 0.00 | 47 | 1005.6 |
| 20260507172857 | 78 | 281 | 4.3 | 9.6 | 1.84 | 0.00 | 0.00 | 48 | 1005.8 |
| 20260507172355 | 78 | 278 | 5.2 | 7.8 | 0.00 | 0.00 | 0.00 | 48 | 1005.8 |
| 20260507171856 | 78 | 287 | 6.1 | 9.6 | 0.00 | 0.00 | 0.00 | 47 | 1005.7 |
| 20260507171356 | 78 | 274 | 3.5 | 13.0 | 0.00 | 0.00 | 0.00 | 47 | 1005.8 |
| 20260507170856 | 79 | 266 | 2.6 | 13.0 | 0.00 | 0.00 | 0.00 | 45 | 1005.9 |
| 20260507170356 | 79 | 260 | 10.4 | 13.0 | 0.00 | 0.00 | 0.00 | 44 | 1006.1 |
| 20260507165856 | 79 | 253 | 3.5 | 7.8 | 0.00 | 0.00 | 0.00 | 46 | 1005.9 |
| 20260507165356 | 78 | 270 | 5.2 | 12.2 | 0.00 | 0.00 | 0.00 | 47 | 1006.2 |
| 20260507164855 | 78 | 271 | 5.2 | 12.2 | 0.00 | 0.00 | 0.00 | 47 | 1006.3 |
| 20260507164355 | 78 | 265 | 7.8 | 13.0 | 0.00 | 0.00 | 0.00 | 47 | 1006.4 |
| 20260507163857 | 78 | 70 | 3.5 | 41.7 | 0.00 | 0.00 | 0.00 | 47 | 1006.5 |
| 20260507163357 | 78 | 69 | 2.6 | 41.7 | 0.00 | 0.00 | 0.00 | 48 | 1006.7 |
| 20260507162857 | 79 | 83 | 3.5 | 41.7 | 0.00 | 0.00 | 0.00 | 48 | 1006.5 |
| 20260507162356 | 79 | 181 | 7.0 | 10.4 | 0.00 | 0.00 | 0.00 | 47 | 1006.3 |
| 20260507161856 | 79 | 269 | 5.2 | 10.4 | 0.00 | 0.00 | 0.00 | 45 | 1006.8 |
| 20260507161356 | 79 | 269 | 5.2 | 10.4 | 0.00 | 0.00 | 0.00 | 45 | 1006.8 |
| 20260507160856 | 79 | 261 | 5.2 | 10.4 | 0.00 | 0.00 | 0.00 | 45 | 1006.8 |
| 20260507160356 | 79 | 232 | 5.2 | 14.8 | 0.00 | 0.00 | 0.00 | 45 | 1006.7 |
| 20260507155856 | 79 | 220 | 7.8 | 14.8 | 0.00 | 0.00 | 0.00 | 45 | 1006.7 |
| 20260507155357 | 79 | 235 | 8.7 | 14.8 | 0.00 | 0.00 | 0.00 | 46 | 1006.5 |
| 20260507154856 | 79 | 272 | 6.1 | 11.3 | 0.00 | 0.00 | 0.00 | 50 | 1007.1 |
| 20260507154356 | 79 | 291 | 5.2 | 11.3 | 0.00 | 0.00 | 0.00 | 50 | 1006.9 |
| 20260507153856 | 78 | 259 | 7.8 | 11.3 | 0.00 | 0.00 | 0.00 | 52 | 1007.2 |
| 20260507153356 | 78 | 267 | 3.5 | 12.2 | 0.00 | 0.00 | 0.00 | 53 | 1007.1 |
| 20260507152856 | 79 | 272 | 5.2 | 12.2 | 0.00 | 0.00 | 0.00 | 53 | 1007.2 |
| 20260507152356 | 79 | 228 | 5.2 | 12.2 | 0.00 | 0.00 | 0.00 | 53 | 1007.3 |
| 20260507151858 | 79 | 240 | 8.7 | 12.2 | 0.00 | 0.00 | 0.00 | 53 | 1007.4 |
| 20260507151356 | 78 | 237 | 4.3 | 11.3 | 0.00 | 0.00 | 0.00 | 53 | 1007.6 |
| 20260507150857 | 78 | 201 | 5.2 | 11.3 | 0.00 | 0.00 | 0.00 | 54 | 1007.5 |
| 20260507150357 | 78 | 224 | 5.2 | 12.2 | 0.00 | 0.00 | 0.00 | 54 | 1007.6 |
| 20260507145857 | 78 | 229 | 4.3 | 13.9 | 0.00 | 0.00 | 0.00 | 54 | 1007.8 |
| 20260507145357 | 78 | 221 | 7.8 | 13.9 | 0.00 | 0.00 | 0.00 | 55 | 1007.9 |
| 20260507144856 | 78 | 244 | 5.2 | 13.9 | 0.00 | 0.00 | 0.00 | 57 | 1008.0 |
| 20260507144356 | 77 | 256 | 5.2 | 13.9 | 0.00 | 0.00 | 0.00 | 57 | 1008.2 |
| 20260507143856 | 77 | 235 | 2.6 | 10.4 | 0.00 | 0.00 | 0.00 | 60 | 1008.5 |
| 20260507143356 | 76 | 245 | 5.2 | 10.4 | 0.00 | 0.00 | 0.00 | 60 | 1008.7 |
| 20260507142856 | 75 | 149 | 7.8 | 11.3 | 0.00 | 0.00 | 0.00 | 61 | 1009.2 |
| 20260507142356 | 74 | 231 | 5.2 | 11.3 | 0.00 | 0.00 | 0.00 | 62 | 1009.2 |
| 20260507141855 | 73 | 265 | 5.2 | 8.7 | 0.00 | 0.00 | 0.00 | 63 | 1009.2 |
| 20260507141355 | 73 | 296 | 3.5 | 6.1 | 0.00 | 0.00 | 0.00 | 64 | 1009.2 |
| 20260507140857 | 73 | 298 | 5.2 | 11.3 | 0.00 | 0.00 | 0.00 | 64 | 1009.2 |
| 20260507140357 | 73 | 272 | 4.3 | 11.3 | 0.00 | 0.00 | 0.00 | 64 | 1009.5 |
| 20260507135857 | 73 | 270 | 5.2 | 7.8 | 0.00 | 0.00 | 0.00 | 64 | 1009.7 |
| 20260507135357 | 73 | 254 | 5.2 | 7.8 | 0.00 | 0.00 | 0.00 | 64 | 1009.9 |
| 20260507134856 | 73 | 209 | 3.5 | 13.0 | 0.00 | 0.00 | 0.00 | 64 | 1010.0 |
| 20260507134356 | 73 | 214 | 3.5 | 13.0 | 0.00 | 0.00 | 0.00 | 64 | 1010.1 |
| 20260507133856 | 72 | 224 | 9.6 | 13.0 | 0.00 | 0.00 | 0.00 | 70 | 1010.0 |
| 20260507133356 | 72 | 217 | 5.2 | 13.0 | 0.00 | 0.00 | 0.00 | 70 | 1010.1 |
| 20260507132856 | 71 | 213 | 5.2 | 13.0 | 0.00 | 0.00 | 0.00 | 70 | 1010.5 |
| 20260507132356 | 71 | 226 | 5.2 | 12.2 | 0.00 | 0.00 | 0.00 | 70 | 1010.6 |
| 20260507131855 | 71 | 263 | 7.0 | 10.4 | 0.00 | 0.00 | 0.00 | 71 | 1010.4 |
| 20260507131355 | 71 | 282 | 5.2 | 7.8 | 0.00 | 0.00 | 0.00 | 70 | 1010.5 |
| 20260507130900 | 72 | 274 | 3.5 | 10.4 | 0.00 | 0.00 | 0.00 | 70 | 1010.9 |
| 20260507130357 | 72 | 283 | 3.5 | 10.4 | 0.00 | 0.00 | 0.00 | 70 | 1010.8 |
| 20260507125857 | 72 | 277 | 7.8 | 10.4 | 0.00 | 0.00 | 0.00 | 70 | 1010.7 |
| 20260507125357 | 72 | 224 | 3.5 | 9.6 | 0.00 | 0.00 | 0.00 | 70 | 1010.8 |
| 20260507124857 | 72 | 236 | 5.2 | 9.6 | 0.00 | 0.00 | 0.00 | 70 | 1011.0 |
| 20260507124356 | 72 | 264 | 5.2 | 7.8 | 0.00 | 0.00 | 0.00 | 71 | 1011.0 |
| 20260507123856 | 71 | 254 | 5.2 | 7.8 | 0.00 | 0.00 | 0.00 | 71 | 1010.8 |
| 20260507123356 | 71 | 227 | 5.2 | 7.8 | 0.00 | 0.00 | 0.00 | 71 | 1010.9 |
| 20260507122856 | 71 | 260 | 5.2 | 7.8 | 0.00 | 0.00 | 0.00 | 72 | 1010.8 |
| 20260507122356 | 70 | 285 | 6.1 | 7.8 | 0.00 | 0.00 | 0.00 | 72 | 1011.0 |
| 20260507121855 | 70 | 251 | 5.2 | 8.7 | 0.00 | 0.00 | 0.00 | 72 | 1011.0 |
| 20260507121355 | 70 | 197 | 3.5 | 8.7 | 0.00 | 0.00 | 0.00 | 72 | 1011.1 |
| 20260507120857 | 70 | 175 | 3.5 | 8.7 | 0.00 | 0.00 | 0.00 | 72 | 1011.1 |
| 20260507120357 | 70 | 203 | 4.3 | 9.6 | 0.00 | 0.00 | 0.00 | 72 | 1011.1 |
| 20260507115857 | 70 | 198 | 2.6 | 12.2 | 0.00 | 0.00 | 0.00 | 72 | 1011.3 |
| 20260507115357 | 70 | 200 | 2.6 | 12.2 | 0.00 | 0.00 | 0.00 | 72 | 1011.2 |
| 20260507114855 | 70 | 221 | 6.1 | 9.6 | 0.00 | 0.00 | 0.00 | 72 | 1011.1 |
| 20260507114355 | 70 | 219 | 5.2 | 9.6 | 0.00 | 0.00 | 0.00 | 72 | 1010.8 |
| 20260507113857 | 70 | 205 | 5.2 | 9.6 | 0.00 | 0.00 | 0.00 | 72 | 1010.9 |
| 20260507113357 | 70 | 207 | 6.1 | 10.4 | 0.00 | 0.00 | 0.00 | 72 | 1010.8 |
| 20260507112857 | 71 | 240 | 5.2 | 10.4 | 0.00 | 0.00 | 0.00 | 72 | 1011.0 |
| 20260507112357 | 71 | 236 | 4.3 | 9.6 | 0.00 | 0.00 | 0.00 | 72 | 1011.0 |
| 20260507111857 | 70 | 206 | 5.2 | 9.6 | 0.00 | 0.00 | 0.00 | 73 | 1010.8 |
| 20260507111355 | 70 | 223 | 5.2 | 7.8 | 0.00 | 0.00 | 0.00 | 75 | 1010.9 |
| 20260507110857 | 69 | 207 | 5.2 | 7.8 | 0.00 | 0.00 | 0.00 | 75 | 1011.1 |
| 20260507110357 | 69 | 222 | 2.6 | 6.1 | 0.00 | 0.00 | 0.00 | 76 | 1011.3 |
| 20260507105857 | 68 | 233 | 4.3 | 6.1 | 0.00 | 0.00 | 0.00 | 77 | 1011.3 |
| 20260507105357 | 68 | 249 | 2.6 | 5.2 | 0.00 | 0.00 | 0.00 | 77 | 1011.3 |
| 20260507022357 | 67 | 89 | 1.7 | 3.5 | 0.00 | 0.00 | 0.00 | 80 | 1015.9 |
| 20260507021856 | 67 | 96 | 0.0 | 1.7 | 0.00 | 0.00 | 0.00 | 80 | 1016.0 |
| 20260507021356 | 67 | 90 | 0.0 | 0.9 | 0.00 | 0.00 | 0.00 | 80 | 1015.9 |
| 20260507020856 | 67 | 90 | 0.0 | 0.9 | 0.00 | 0.00 | 0.00 | 80 | 1016.0 |
| 20260507020356 | 67 | 101 | 0.0 | 0.9 | 0.00 | 0.00 | 0.00 | 80 | 1016.2 |
| 20260507015858 | 67 | 97 | 0.0 | 0.9 | 0.00 | 0.00 | 0.00 | 79 | 1016.2 |
| 20260507015358 | 67 | 80 | 0.0 | 1.7 | 0.00 | 0.00 | 0.00 | 79 | 1016.3 |
| 20260507014858 | 67 | 5 | 0.0 | 2.6 | 0.00 | 0.00 | 0.00 | 80 | 1016.3 |
| 20260507014357 | 67 | 55 | 0.0 | 2.6 | 0.00 | 0.00 | 0.00 | 81 | 1016.4 |
| 20260507013857 | 67 | 114 | 0.0 | 0.9 | 0.00 | 0.00 | 0.00 | 82 | 1016.1 |
| 20260507013357 | 66 | 104 | 0.0 | 0.0 | 0.00 | 0.00 | 0.00 | 82 | 1016.2 |
| 20260507012858 | 66 | 115 | 0.0 | 0.0 | 0.00 | 0.00 | 0.00 | 83 | 1016.3 |
| 20260507012358 | 66 | 90 | 0.0 | 0.0 | 0.00 | 0.00 | 0.00 | 83 | 1016.2 |
| 20260507011858 | 66 | 324 | 0.0 | 0.0 | 0.00 | 0.00 | 0.00 | 82 | 1016.4 |
| 20260507011357 | 66 | 0 | 0.0 | 0.0 | 0.00 | 0.00 | 0.00 | 82 | 1016.4 |
| 20260507010857 | 66 | 0 | 0.0 | 0.0 | 0.00 | 0.00 | 0.00 | 82 | 1016.3 |
| 20260507010357 | 66 | 90 | 0.0 | 0.0 | 0.00 | 0.00 | 0.00 | 81 | 1016.4 |
| 20260507005857 | 67 | 90 | 0.0 | 0.0 | 0.00 | 0.00 | 0.00 | 81 | 1016.3 |
| 20260507005357 | 67 | 90 | 0.0 | 0.0 | 0.00 | 0.00 | 0.00 | 81 | 1016.4 |
| 20260507004857 | 67 | 90 | 0.0 | 0.0 | 0.00 | 0.00 | 0.00 | 81 | 1016.4 |
| 20260507004356 | 67 | 90 | 0.0 | 0.9 | 0.00 | 0.00 | 0.00 | 82 | 1016.6 |
| 20260507003856 | 67 | 101 | 0.0 | 0.9 | 0.00 | 0.00 | 0.00 | 82 | 1016.4 |
| 20260507003356 | 66 | 104 | 0.0 | 0.0 | 0.00 | 0.00 | 0.00 | 83 | 1016.5 |
| 20260507002858 | 66 | 90 | 0.0 | 0.9 | 0.00 | 0.00 | 0.00 | 83 | 1016.6 |
| 20260507002358 | 66 | 90 | 0.0 | 0.9 | 0.00 | 0.00 | 0.00 | 83 | 1016.6 |
| 20260507001858 | 66 | 90 | 0.0 | 0.9 | 0.00 | 0.00 | 0.00 | 83 | 1016.7 |
| 20260507001358 | 66 | 90 | 0.0 | 0.0 | 0.00 | 0.00 | 0.00 | 83 | 1016.5 |
| 20260507000857 | 66 | 0 | 0.0 | 0.0 | 0.00 | 0.00 | 0.00 | 82 | 1016.6 |
| 20260507000358 | 66 | 0 | 0.0 | 0.0 | 0.00 | 0.00 | 0.00 | 82 | 1016.7 |
| 20260506235857 | 67 | 90 | 0.0 | 0.0 | 0.00 | 0.00 | 0.00 | 82 | 1016.6 |
| 20260506235357 | 67 | 90 | 0.0 | 0.0 | 0.00 | 0.00 | 0.00 | 81 | 1016.6 |
| 20260506234857 | 67 | 0 | 0.0 | 0.0 | 0.00 | 0.00 | 0.00 | 81 | 1016.6 |
| 20260506234357 | 67 | 0 | 0.0 | 0.0 | 0.00 | 0.00 | 0.00 | 81 | 1016.5 |
| 20260506233857 | 67 | 0 | 0.0 | 0.0 | 0.00 | 0.00 | 0.00 | 80 | 1016.7 |
| 20260506233356 | 68 | 0 | 0.0 | 0.0 | 0.00 | 0.00 | 0.00 | 80 | 1016.8 |
| 20260506232856 | 68 | 0 | 0.0 | 0.0 | 0.00 | 0.00 | 0.00 | 80 | 1016.7 |
| 20260506232358 | 68 | 0 | 0.0 | 0.0 | 0.00 | 0.00 | 0.00 | 79 | 1016.6 |
| 20260506231858 | 68 | 90 | 0.0 | 0.0 | 0.00 | 0.00 | 0.00 | 79 | 1016.7 |
| 20260506231358 | 68 | 90 | 0.0 | 0.0 | 0.00 | 0.00 | 0.00 | 79 | 1016.7 |
| 20260506230858 | 69 | 90 | 0.0 | 0.0 | 0.00 | 0.00 | 0.00 | 79 | 1016.5 |
| 20260506230357 | 69 | 90 | 0.0 | 0.0 | 0.00 | 0.00 | 0.00 | 78 | 1016.5 |
| 20260506225857 | 69 | 90 | 0.0 | 0.0 | 0.00 | 0.00 | 0.00 | 78 | 1016.5 |
| 20260506225357 | 69 | 68 | 0.0 | 0.0 | 0.00 | 0.00 | 0.00 | 78 | 1016.6 |
| 20260506224857 | 69 | 30 | 0.0 | 0.0 | 0.00 | 0.00 | 0.00 | 77 | 1016.6 |
| 20260506224357 | 69 | 90 | 0.0 | 0.0 | 0.00 | 0.00 | 0.00 | 76 | 1016.6 |
| 20260506223857 | 69 | 90 | 0.0 | 0.0 | 0.00 | 0.00 | 0.00 | 76 | 1016.7 |
| 20260506223357 | 69 | 341 | 0.0 | 0.0 | 0.00 | 0.00 | 0.00 | 76 | 1016.7 |
| 20260506222856 | 69 | 327 | 0.0 | 0.0 | 0.00 | 0.00 | 0.00 | 76 | 1016.8 |
| 20260506222356 | 69 | 319 | 0.0 | 0.0 | 0.00 | 0.00 | 0.00 | 76 | 1016.8 |
| 20260506221858 | 70 | 314 | 0.0 | 0.0 | 0.00 | 0.00 | 0.00 | 75 | 1016.6 |
| 20260506221358 | 70 | 90 | 0.0 | 0.0 | 0.00 | 0.00 | 0.00 | 74 | 1016.7 |
| 20260506220857 | 70 | 90 | 0.0 | 0.0 | 0.00 | 0.00 | 0.00 | 73 | 1016.7 |
| 20260506220357 | 71 | 0 | 0.0 | 0.0 | 0.00 | 0.00 | 0.00 | 73 | 1016.6 |
| 20260506215857 | 71 | 88 | 0.0 | 0.0 | 0.00 | 0.00 | 0.00 | 72 | 1016.6 |
| 20260506215356 | 71 | 40 | 0.0 | 0.9 | 0.00 | 0.00 | 0.00 | 71 | 1016.8 |
| 20260506214858 | 72 | 35 | 0.0 | 0.9 | 0.00 | 0.00 | 0.00 | 71 | 1016.7 |
| 20260506214357 | 72 | 85 | 0.0 | 0.0 | 0.00 | 0.00 | 0.00 | 70 | 1016.5 |
| 20260506213857 | 72 | 96 | 0.0 | 0.0 | 0.00 | 0.00 | 0.00 | 70 | 1016.6 |
| 20260506213357 | 72 | 93 | 0.0 | 0.0 | 0.00 | 0.00 | 0.00 | 65 | 1016.5 |
| 20260506212857 | 73 | 115 | 0.0 | 0.9 | 0.00 | 0.00 | 0.00 | 65 | 1016.5 |
| 20260506212356 | 73 | 113 | 0.0 | 0.9 | 0.00 | 0.00 | 0.00 | 64 | 1016.5 |
| 20260506211856 | 73 | 93 | 0.0 | 0.0 | 0.00 | 0.00 | 0.00 | 64 | 1016.5 |
| 20260506211358 | 74 | 81 | 0.0 | 0.0 | 0.00 | 0.00 | 0.00 | 64 | 1016.7 |
| 20260506210858 | 74 | 98 | 0.0 | 0.9 | 0.00 | 0.00 | 0.00 | 62 | 1016.6 |
| 20260506210358 | 74 | 113 | 0.0 | 0.9 | 0.00 | 0.00 | 0.00 | 62 | 1016.5 |
| 20260506205858 | 75 | 152 | 0.0 | 0.9 | 0.00 | 0.00 | 0.00 | 62 | 1016.5 |
| 20260506205357 | 75 | 170 | 0.0 | 0.9 | 0.00 | 0.00 | 0.00 | 62 | 1016.4 |
| 20260506204857 | 75 | 85 | 0.0 | 0.9 | 0.00 | 0.00 | 0.00 | 62 | 1016.5 |
| 20260506204357 | 75 | 86 | 0.0 | 0.9 | 0.00 | 0.00 | 0.00 | 61 | 1016.4 |
| 20260506203857 | 76 | 163 | 0.9 | 0.9 | 0.00 | 0.00 | 0.00 | 61 | 1016.5 |
| 20260506203357 | 76 | 132 | 0.0 | 0.0 | 0.00 | 0.00 | 0.00 | 60 | 1016.7 |
| 20260506202857 | 77 | 166 | 0.0 | 1.7 | 0.00 | 0.00 | 0.00 | 60 | 1016.5 |
| 20260506202356 | 77 | 235 | 0.0 | 1.7 | 0.00 | 0.00 | 0.00 | 59 | 1016.8 |
| 20260506201856 | 78 | 267 | 0.9 | 1.7 | 0.00 | 0.00 | 0.00 | 57 | 1016.5 |
| 20260506201358 | 78 | 296 | 0.0 | 0.9 | 0.00 | 0.00 | 0.00 | 56 | 1016.6 |
| 20260506200858 | 79 | 143 | 0.0 | 0.9 | 0.00 | 0.00 | 0.00 | 54 | 1016.8 |
| 20260506200357 | 80 | 165 | 0.0 | 0.9 | 0.00 | 0.00 | 0.00 | 53 | 1016.9 |
| 20260506195857 | 81 | 163 | 0.0 | 2.6 | 0.00 | 0.00 | 0.00 | 53 | 1016.7 |
| 20260506195357 | 82 | 193 | 0.9 | 2.6 | 0.00 | 0.00 | 0.00 | 49 | 1016.9 |
| 20260506194857 | 81 | 226 | 0.0 | 2.6 | 0.00 | 0.00 | 0.00 | 52 | 1016.8 |
| 20260506194357 | 81 | 246 | 0.9 | 2.6 | 0.00 | 0.00 | 0.00 | 52 | 1016.8 |
| 20260506193857 | 81 | 268 | 1.7 | 3.5 | 0.00 | 0.00 | 0.00 | 52 | 1016.7 |
| 20260506193356 | 82 | 258 | 0.0 | 3.5 | 0.00 | 0.00 | 0.00 | 47 | 1016.7 |
| 20260506192858 | 82 | 177 | 2.6 | 5.2 | 0.00 | 0.00 | 0.00 | 46 | 1017.0 |
| 20260506192358 | 82 | 162 | 2.6 | 5.2 | 0.00 | 0.00 | 0.00 | 46 | 1016.9 |
| 20260506191858 | 82 | 196 | 2.6 | 5.2 | 0.00 | 0.00 | 0.00 | 47 | 1016.7 |
| 20260506191358 | 83 | 321 | 2.6 | 3.5 | 0.00 | 0.00 | 0.00 | 47 | 1016.8 |
| 20260506190858 | 83 | 323 | 0.9 | 5.2 | 0.00 | 0.00 | 0.00 | 48 | 1016.7 |
| 20260506190357 | 82 | 276 | 0.9 | 5.2 | 0.00 | 0.00 | 0.00 | 48 | 1016.7 |
| 20260506185857 | 82 | 218 | 0.9 | 4.3 | 0.00 | 0.00 | 0.00 | 47 | 1016.8 |
| 20260506185357 | 83 | 225 | 0.9 | 4.3 | 0.00 | 0.00 | 0.00 | 46 | 1016.7 |
| 20260506184857 | 83 | 222 | 1.7 | 5.2 | 0.00 | 0.00 | 0.00 | 46 | 1016.9 |
| 20260506184357 | 83 | 235 | 1.7 | 5.2 | 0.00 | 0.00 | 0.00 | 45 | 1016.7 |
| 20260506183857 | 83 | 225 | 3.5 | 5.2 | 0.00 | 0.00 | 0.00 | 44 | 1016.8 |
| 20260506183356 | 83 | 185 | 1.7 | 3.5 | 0.00 | 0.00 | 0.00 | 44 | 1016.8 |
| 20260506182859 | 83 | 198 | 2.6 | 4.3 | 0.00 | 0.00 | 0.00 | 44 | 1017.0 |
| 20260506182358 | 83 | 276 | 0.9 | 5.2 | 0.00 | 0.00 | 0.00 | 45 | 1016.8 |
| 20260506181858 | 83 | 284 | 2.6 | 5.2 | 0.00 | 0.00 | 0.00 | 45 | 1017.0 |
| 20260506181358 | 84 | 268 | 0.9 | 5.2 | 0.00 | 0.00 | 0.00 | 45 | 1016.8 |